| time (UTC) | temp C | wind direction | speed KPH | gust KPH | rain 1hr cm | rain 24hr cm | rain mn cm | humidity % | barometer mb |
| 20260504044531 | 12 | 0 | 0.0 | 3.2 | 0.00 | 0.00 | 0.00 | 82 | 1019.1 |
| 20260504043032 | 12 | 269 | 0.0 | 3.2 | 0.00 | 0.00 | 0.00 | 81 | 1019.3 |
| 20260504041536 | 12 | 269 | 1.6 | 4.8 | 0.00 | 0.00 | 0.00 | 81 | 1019.3 |
| 20260504040033 | 12 | 0 | 0.0 | 1.6 | 0.00 | 0.00 | 0.00 | 80 | 1019.3 |
| 20260504034542 | 13 | 339 | 0.0 | 3.2 | 0.00 | 0.00 | 0.00 | 78 | 1019.2 |
| 20260504033033 | 13 | 0 | 0.0 | 0.0 | 0.00 | 0.00 | 0.00 | 78 | 1019.2 |
| 20260504031535 | 13 | 0 | 0.0 | 3.2 | 0.00 | 0.00 | 0.00 | 76 | 1019.3 |
| 20260504030039 | 13 | 0 | 0.0 | 0.0 | 0.00 | 0.00 | 0.00 | 77 | 1019.2 |
| 20260504024530 | 13 | 0 | 0.0 | 0.0 | 0.00 | 0.00 | 0.00 | 76 | 1019.1 |
| 20260504023034 | 14 | 0 | 0.0 | 0.0 | 0.00 | 0.00 | 0.00 | 75 | 1019.0 |
| 20260504021534 | 15 | 0 | 0.0 | 1.6 | 0.00 | 0.00 | 0.00 | 74 | 1019.0 |
| 20260504020038 | 15 | 0 | 0.0 | 3.2 | 0.00 | 0.00 | 0.00 | 70 | 1018.7 |
| 20260504014534 | 15 | 0 | 0.0 | 1.6 | 0.00 | 0.00 | 0.00 | 66 | 1018.6 |
| 20260504013032 | 16 | 0 | 0.0 | 0.0 | 0.00 | 0.00 | 0.00 | 66 | 1018.5 |
| 20260504011533 | 16 | 0 | 0.0 | 0.0 | 0.00 | 0.00 | 0.00 | 63 | 1018.4 |
| 20260504010040 | 17 | 0 | 0.0 | 0.0 | 0.00 | 0.00 | 0.00 | 58 | 1018.3 |
| 20260504004534 | 18 | 0 | 0.0 | 1.6 | 0.00 | 0.00 | 0.00 | 56 | 1017.9 |
| 20260504003032 | 20 | 0 | 0.0 | 1.6 | 0.00 | 0.00 | 0.00 | 54 | 1017.8 |
| 20260504001535 | 21 | 0 | 0.0 | 3.2 | 0.00 | 0.00 | 0.00 | 50 | 1017.7 |
| 20260504000034 | 22 | 0 | 1.6 | 8.0 | 0.00 | 0.00 | 0.00 | 44 | 1017.8 |
| 20260503234535 | 23 | 344 | 3.2 | 8.0 | 0.00 | 0.00 | 0.00 | 39 | 1017.8 |
| 20260503233035 | 23 | 9 | 0.0 | 6.4 | 0.00 | 0.00 | 0.00 | 38 | 1017.7 |
| 20260503231545 | 23 | 325 | 1.6 | 8.0 | 0.00 | 0.00 | 0.00 | 35 | 1017.9 |
| 20260503230034 | 23 | 309 | 1.6 | 11.3 | 0.00 | 0.00 | 0.00 | 35 | 1017.8 |
| 20260503224534 | 24 | 0 | 1.6 | 8.0 | 0.00 | 0.00 | 0.00 | 35 | 1018.0 |
| 20260503223035 | 24 | 0 | 3.2 | 14.5 | 0.00 | 0.00 | 0.00 | 34 | 1018.0 |
| 20260503221535 | 24 | 21 | 6.4 | 16.1 | 0.00 | 0.00 | 0.00 | 34 | 1018.0 |
| 20260503220038 | 24 | 351 | 4.8 | 14.5 | 0.00 | 0.00 | 0.00 | 33 | 1018.2 |
| 20260503214542 | 24 | 19 | 6.4 | 19.3 | 0.00 | 0.00 | 0.00 | 33 | 1018.2 |
| 20260503213050 | 24 | 103 | 3.2 | 14.5 | 0.00 | 0.00 | 0.00 | 31 | 1018.3 |
| 20260503211549 | 24 | 350 | 3.2 | 16.1 | 0.00 | 0.00 | 0.00 | 33 | 1018.5 |
| 20260503210035 | 24 | 0 | 4.8 | 12.9 | 0.00 | 0.00 | 0.00 | 32 | 1018.6 |
| 20260503204550 | 23 | 321 | 6.4 | 17.7 | 0.00 | 0.00 | 0.00 | 32 | 1018.7 |
| 20260503203035 | 24 | 0 | 6.4 | 17.7 | 0.00 | 0.00 | 0.00 | 33 | 1019.1 |
| 20260503201532 | 24 | 298 | 4.8 | 16.1 | 0.00 | 0.00 | 0.00 | 33 | 1019.4 |
| 20260503200034 | 23 | 319 | 3.2 | 14.5 | 0.00 | 0.00 | 0.00 | 33 | 1019.6 |
| 20260503194534 | 23 | 355 | 6.4 | 22.5 | 0.00 | 0.00 | 0.00 | 31 | 1020.0 |
| 20260503193034 | 23 | 298 | 3.2 | 24.1 | 0.00 | 0.00 | 0.00 | 32 | 1020.2 |
| 20260503191533 | 23 | 36 | 6.4 | 16.1 | 0.00 | 0.00 | 0.00 | 33 | 1020.2 |
| 20260503190033 | 23 | 331 | 8.0 | 19.3 | 0.00 | 0.00 | 0.00 | 32 | 1020.6 |
| 20260503184534 | 23 | 205 | 3.2 | 20.9 | 0.00 | 0.00 | 0.00 | 36 | 1020.8 |
| 20260503183041 | 23 | 277 | 3.2 | 16.1 | 0.00 | 0.00 | 0.00 | 32 | 1020.9 |
| 20260503181534 | 23 | 333 | 6.4 | 20.9 | 0.00 | 0.00 | 0.00 | 33 | 1021.2 |
| 20260503180035 | 23 | 108 | 8.0 | 16.1 | 0.00 | 0.00 | 0.00 | 32 | 1021.5 |
| 20260503174544 | 23 | 5 | 4.8 | 22.5 | 0.00 | 0.00 | 0.00 | 34 | 1021.5 |
| 20260503173032 | 22 | 327 | 4.8 | 14.5 | 0.00 | 0.00 | 0.00 | 34 | 1021.7 |
| 20260503171534 | 22 | 35 | 4.8 | 19.3 | 0.00 | 0.00 | 0.00 | 34 | 1021.9 |
| 20260503081545 | 8 | 0 | 0.0 | 0.0 | 0.00 | 0.25 | 0.00 | 85 | 1019.8 |
| 20260503071554 | 10 | 0 | 0.0 | 0.0 | 0.00 | 0.48 | 0.00 | 79 | 1019.1 |
| 20260503054550 | 12 | 0 | 0.0 | 3.2 | 0.00 | 0.69 | 0.00 | 66 | 1019.0 |
| 20260503053030 | 13 | 0 | 0.0 | 3.2 | 0.00 | 0.69 | 0.00 | 62 | 1019.0 |